Stündliche Wetter Kysna

Heute, 14 Mai, Freitag

Zeit Temperatur Niederschläge Wind Luftdruck Luftfeuchtigkeit
00:00 +19°C° 0 mm 4 m/S 753 mmHg 65%
01:00 +18°C° 0 mm 4 m/S 753 mmHg 67%
02:00 +17°C° 0 mm 4 m/S 753 mmHg 69%
03:00 +17°C° 0 mm 3 m/S 753 mmHg 71%
04:00 +17°C° 0 mm 4 m/S 753 mmHg 69%
05:00 +18°C° 0 mm 4 m/S 753 mmHg 68%
06:00 +19°C° 0 mm 4 m/S 753 mmHg 66%
07:00 +20°C° 0 mm 4 m/S 753 mmHg 59%
08:00 +22°C° 0 mm 5 m/S 753 mmHg 52%
09:00 +23°C° 0 mm 6 m/S 753 mmHg 46%
10:00 +24°C° 0 mm 6 m/S 753 mmHg 44%
11:00 +26°C° 0 mm 6 m/S 753 mmHg 43%
12:00 +27°C° 0 mm 6 m/S 753 mmHg 42%
13:00 +27°C° 0 mm 6 m/S 753 mmHg 43%
14:00 +27°C° 0 mm 5 m/S 753 mmHg 44%
15:00 +27°C° 0 mm 5 m/S 752 mmHg 44%
16:00 +26°C° 0 mm 5 m/S 752 mmHg 49%
17:00 +25°C° 0 mm 4 m/S 752 mmHg 54%
18:00 +23°C° 0 mm 4 m/S 752 mmHg 58%
19:00 +22°C° 0 mm 3 m/S 752 mmHg 62%
20:00 +20°C° 0 mm 3 m/S 752 mmHg 66%
21:00 +19°C° 0 mm 2 m/S 752 mmHg 69%
22:00 +18°C° 0 mm 2 m/S 752 mmHg 71%
23:00 +18°C° 0 mm 2 m/S 752 mmHg 72%

Morgen, 15 Mai, Samstag

Zeit Temperatur Niederschläge Wind Luftdruck Luftfeuchtigkeit
00:00 +17°C° 0 mm 2 m/S 752 mmHg 73%
01:00 +17°C° 0 mm 2 m/S 752 mmHg 74%
02:00 +17°C° 0 mm 2 m/S 752 mmHg 75%
03:00 +17°C° 0 mm 2 m/S 752 mmHg 76%
04:00 +18°C° 0 mm 2 m/S 752 mmHg 74%
05:00 +18°C° 0 mm 3 m/S 752 mmHg 72%
06:00 +19°C° 0 mm 3 m/S 752 mmHg 71%
07:00 +20°C° 0 mm 3 m/S 752 mmHg 63%
08:00 +22°C° 0 mm 4 m/S 752 mmHg 55%
09:00 +23°C° 0 mm 5 m/S 752 mmHg 47%
10:00 +26°C° 0 mm 5 m/S 751 mmHg 44%
11:00 +27°C° 0 mm 6 m/S 751 mmHg 41%
12:00 +28°C° 0 mm 6 m/S 751 mmHg 38%
13:00 +29°C° 0 mm 6 m/S 751 mmHg 39%
14:00 +29°C° 0 mm 6 m/S 751 mmHg 39%
15:00 +29°C° 0 mm 6 m/S 751 mmHg 39%
16:00 +28°C° 0 mm 6 m/S 751 mmHg 43%
17:00 +27°C° 0 mm 6 m/S 750 mmHg 46%
18:00 +25°C° 0 mm 5 m/S 750 mmHg 49%
19:00 +23°C° 0 mm 5 m/S 750 mmHg 52%
20:00 +21°C° 0 mm 4 m/S 750 mmHg 55%
21:00 +20°C° 0 mm 4 m/S 750 mmHg 58%
22:00 +19°C° 0 mm 4 m/S 750 mmHg 58%
23:00 +18°C° 0 mm 4 m/S 750 mmHg 59%

übermorgen, 16 Mai, Sonntag

Zeit Temperatur Niederschläge Wind Luftdruck Luftfeuchtigkeit
00:00 +18°C° 0 mm 4 m/S 749 mmHg 60%
01:00 +17°C° 0 mm 3 m/S 749 mmHg 61%
02:00 +17°C° 0 mm 3 m/S 750 mmHg 62%
03:00 +16°C° 0 mm 3 m/S 750 mmHg 63%
04:00 +17°C° 0 mm 3 m/S 750 mmHg 62%
05:00 +18°C° 0 mm 4 m/S 750 mmHg 61%
06:00 +19°C° 0 mm 4 m/S 750 mmHg 60%
07:00 +21°C° 0 mm 4 m/S 750 mmHg 55%
08:00 +22°C° 0 mm 5 m/S 749 mmHg 50%
09:00 +24°C° 0 mm 6 m/S 749 mmHg 45%
10:00 +26°C° 0 mm 6 m/S 749 mmHg 43%
11:00 +27°C° 0 mm 6 m/S 749 mmHg 41%
12:00 +29°C° 0 mm 6 m/S 749 mmHg 38%
13:00 +29°C° 0 mm 6 m/S 749 mmHg 39%
14:00 +29°C° 0 mm 6 m/S 749 mmHg 39%
15:00 +30°C° 0 mm 6 m/S 749 mmHg 39%
16:00 +28°C° 0 mm 5 m/S 749 mmHg 44%
17:00 +27°C° 0 mm 5 m/S 748 mmHg 49%
18:00 +26°C° 0 mm 4 m/S 748 mmHg 54%
19:00 +24°C° 0 mm 3 m/S 748 mmHg 59%
20:00 +22°C° 0 mm 3 m/S 748 mmHg 65%
21:00 +20°C° 0 mm 2 m/S 748 mmHg 71%
22:00 +20°C° 0 mm 2 m/S 748 mmHg 75%
23:00 +19°C° 0 mm 2 m/S 749 mmHg 79%

17 Mai, Montag

Zeit Temperatur Niederschläge Wind Luftdruck Luftfeuchtigkeit
00:00 +18°C° 0 mm 2 m/S 749 mmHg 83%
01:00 +18°C° 0.1 mm 2 m/S 749 mmHg 85%
02:00 +18°C° 0.1 mm 2 m/S 749 mmHg 87%
03:00 +17°C° 0.1 mm 2 m/S 749 mmHg 90%
04:00 +19°C° 0.2 mm 1 m/S 750 mmHg 87%
05:00 +20°C° 0.2 mm 1 m/S 750 mmHg 84%
06:00 +20°C° 0.2 mm 1 m/S 750 mmHg 81%
07:00 +22°C° 0 mm 1 m/S 750 mmHg 73%
08:00 +23°C° 0 mm 2 m/S 750 mmHg 65%
09:00 +25°C° 0 mm 2 m/S 750 mmHg 57%
10:00 +26°C° 0 mm 2 m/S 750 mmHg 54%
11:00 +27°C° 0 mm 3 m/S 750 mmHg 50%
12:00 +28°C° 0 mm 4 m/S 750 mmHg 47%
13:00 +28°C° 0 mm 4 m/S 750 mmHg 45%
14:00 +28°C° 0 mm 4 m/S 750 mmHg 43%
15:00 +29°C° 0 mm 4 m/S 750 mmHg 41%
16:00 +28°C° 0 mm 4 m/S 750 mmHg 46%
17:00 +27°C° 0 mm 3 m/S 750 mmHg 52%
18:00 +26°C° 0 mm 2 m/S 750 mmHg 57%
19:00 +25°C° 0.2 mm 2 m/S 750 mmHg 62%
20:00 +23°C° 0.2 mm 1 m/S 750 mmHg 68%
21:00 +21°C° 0.2 mm 1 m/S 750 mmHg 73%
22:00 +21°C° 0.2 mm 1 m/S 750 mmHg 75%
23:00 +18°C° 0.2 mm 0 m/S 750 mmHg 76%

18 Mai, Dienstag

Zeit Temperatur Niederschläge Wind Luftdruck Luftfeuchtigkeit
00:00 +18°C° 0.2 mm 0 m/S 750 mmHg 78%
01:00 +17°C° 0 mm 0 m/S 750 mmHg 79%
02:00 +17°C° 0 mm 0 m/S 750 mmHg 81%
03:00 +17°C° 0 mm 0 m/S 750 mmHg 82%
04:00 +18°C° 0 mm 0 m/S 750 mmHg 79%
05:00 +19°C° 0 mm 0 m/S 750 mmHg 75%
06:00 +20°C° 0 mm 0 m/S 750 mmHg 71%
07:00 +22°C° 0 mm 0 m/S 751 mmHg 66%
08:00 +23°C° 0 mm 0 m/S 751 mmHg 60%
09:00 +27°C° 0 mm 1 m/S 751 mmHg 54%
10:00 +28°C° 0 mm 1 m/S 750 mmHg 48%
11:00 +29°C° 0 mm 1 m/S 750 mmHg 42%
12:00 +30°C° 0 mm 2 m/S 750 mmHg 35%
13:00 +31°C° 0 mm 2 m/S 750 mmHg 33%
14:00 +31°C° 0 mm 2 m/S 750 mmHg 30%
15:00 +31°C° 0 mm 2 m/S 750 mmHg 27%
16:00 +29°C° 0 mm 2 m/S 750 mmHg 34%
17:00 +28°C° 0 mm 2 m/S 750 mmHg 41%
18:00 +26°C° 0 mm 2 m/S 750 mmHg 48%
19:00 +25°C° 0 mm 2 m/S 750 mmHg 48%
20:00 +24°C° 0 mm 2 m/S 750 mmHg 47%
21:00 +24°C° 0 mm 1 m/S 750 mmHg 47%
22:00 +23°C° 0 mm 1 m/S 750 mmHg 49%
23:00 +22°C° 0 mm 1 m/S 750 mmHg 50%

19 Mai, Mittwoch

Zeit Temperatur Niederschläge Wind Luftdruck Luftfeuchtigkeit
00:00 +21°C° 0 mm 1 m/S 750 mmHg 52%
01:00 +21°C° 0 mm 1 m/S 750 mmHg 52%
02:00 +19°C° 0 mm 2 m/S 750 mmHg 53%
03:00 +19°C° 0 mm 2 m/S 750 mmHg 53%
04:00 +19°C° 0 mm 2 m/S 750 mmHg 55%
05:00 +20°C° 0 mm 2 m/S 750 mmHg 57%
06:00 +20°C° 0 mm 2 m/S 751 mmHg 59%
07:00 +23°C° 0 mm 2 m/S 751 mmHg 54%
08:00 +25°C° 0 mm 3 m/S 751 mmHg 50%
09:00 +27°C° 0 mm 3 m/S 751 mmHg 45%
10:00 +28°C° 0 mm 3 m/S 751 mmHg 42%
11:00 +29°C° 0 mm 3 m/S 751 mmHg 39%
12:00 +30°C° 0 mm 4 m/S 751 mmHg 35%
13:00 +30°C° 0 mm 4 m/S 751 mmHg 36%
14:00 +30°C° 0 mm 4 m/S 751 mmHg 36%
15:00 +30°C° 0 mm 4 m/S 751 mmHg 37%
16:00 +29°C° 0 mm 3 m/S 751 mmHg 42%
17:00 +28°C° 0 mm 3 m/S 751 mmHg 48%
18:00 +27°C° 0 mm 2 m/S 751 mmHg 54%
19:00 +26°C° 0 mm 3 m/S 752 mmHg 57%
20:00 +24°C° 0 mm 3 m/S 752 mmHg 60%
21:00 +21°C° 0 mm 3 m/S 752 mmHg 63%
22:00 +21°C° 0 mm 3 m/S 752 mmHg 64%
23:00 +21°C° 0 mm 4 m/S 752 mmHg 66%
Mehr zeigen

Wir brauchen deine Erlaubnis

Meteoprog und unser Service Anbieter werden persönliche Daten aufbewahren, so wie Cookies, Geräte Bezeichnung oder ähnliche Technologien von deinem Gerät und Prozess, so wie Persönliche Daten Inhalte und Werbungen, genauso wie social Media und den Verkehr zu analysieren.

  • Aufbewahrung und/oder Zugang zu deiner Geräte Informationen.

    Cookies, Geräte Bezeichnung oder andere Informationen, können aufbewahrt oder Zugang zu deinem Gerät erhalten, für den Grund, der oben angegeben wird.

  • Personalisierte Werbung und Inhalte, Messungen, Einblick in das Publikum und Produkt Entwicklung.

    Werbungen und Inhalte können personalisiert werden, basierend auf ein Profil. Mehr Daten können besser personalisierte Werbungen und Inhalte hinzufügen. Werbung und Inhalte können gezeigt und gemessen werden. Einblicke über das Publikum, welche die Werbung gesehen haben und den Inhalt, können abgeleitet werden. So wie Daten können genutzt werden, um es zu verbessern oder die Benutzer Erfahrung zu verbessern das System und die Software.

Wenn du “Ich stimme zu” klickst, erlaubst du uns, die Cookies zu benutzen die Geräte Bezeichnung, den Web oder ähnliche Technologien zu benutzen. Deine Settings, können in deinem Gerät bei deinem Browser geändert werden.

Für den bestimmten Zweck, berechtigten Interessen beruhen darauf, mehr als auf den Inhalt. Du kannst mehr darüber in unseren Privaten und Cookie Politik lesen.